Powrót do katalogu

STARLINK-5705

AktywnyŁącznośćVLEO
NORAD 55472·PAYLOAD·🇺🇸 United States

Wystrzelony Feb 2, 2023 z Cape Canaveral Space Force Station

Loading…

Następne Przeloty (najbliższe 24 godziny)

TLE

ŚwieżeSource: CelesTrak SupGP

Epoka: Sep 14, 2026, 21:54 UTC

1 55472C 23015Z   26257.91298611 -.00061588  00000+0 -22306-2 0  2574
2 55472  43.0044 333.1604 0002178 279.1085 312.2778 15.27609840    13

Śledź STARLINK-5705 w czasie rzeczywistym z AllMySat

Download on the App Store